| time (UTC) | temp F | wind direction | speed knots | gust knots | rain 1hr in | rain 24hr in | rain mn in | humidity % | barometer mb |
| 20260906111123 | 72 | 89 | 0.0 | 0.0 | 0.00 | 0.00 | 0.00 | 96 | 1015.0 |
| 20260906110116 | 72 | 89 | 0.0 | 0.0 | 0.00 | 0.00 | 0.00 | 96 | 1014.8 |
| 20260906105146 | 72 | 89 | 0.0 | 0.0 | 0.00 | 0.00 | 0.00 | 96 | 1014.7 |
| 20260906104140 | 72 | 89 | 0.0 | 0.0 | 0.00 | 0.00 | 0.00 | 96 | 1014.7 |
| 20260906103117 | 72 | 89 | 0.0 | 0.0 | 0.00 | 0.00 | 0.00 | 96 | 1014.7 |
| 20260906102131 | 72 | 89 | 0.0 | 0.0 | 0.00 | 0.00 | 0.00 | 96 | 1014.4 |
| 20260906101124 | 72 | 89 | 0.0 | 0.0 | 0.00 | 0.00 | 0.00 | 96 | 1014.1 |
| 20260906100120 | 72 | 89 | 0.0 | 0.0 | 0.00 | 0.00 | 0.00 | 96 | 1014.2 |
| 20260906095131 | 72 | 89 | 0.0 | 0.0 | 0.00 | 0.00 | 0.00 | 96 | 1014.1 |
| 20260906094126 | 72 | 89 | 0.0 | 0.0 | 0.00 | 0.00 | 0.00 | 96 | 1014.0 |
| 20260906093119 | 72 | 89 | 0.0 | 0.0 | 0.00 | 0.00 | 0.00 | 96 | 1013.9 |
| 20260906092116 | 72 | 89 | 0.0 | 0.0 | 0.00 | 0.00 | 0.00 | 96 | 1013.9 |
| 20260906091129 | 72 | 89 | 0.0 | 0.0 | 0.00 | 0.00 | 0.00 | 96 | 1013.8 |
| 20260906090121 | 72 | 89 | 0.0 | 0.0 | 0.00 | 0.00 | 0.00 | 97 | 1013.7 |
| 20260906085116 | 71 | 89 | 0.0 | 0.0 | 0.00 | 0.00 | 0.00 | 97 | 1013.6 |
| 20260906084129 | 71 | 89 | 0.0 | 0.0 | 0.00 | 0.00 | 0.00 | 96 | 1013.4 |
| 20260906083122 | 70 | 89 | 0.0 | 0.0 | 0.00 | 0.00 | 0.00 | 97 | 1013.1 |
| 20260906082135 | 70 | 89 | 0.0 | 0.0 | 0.00 | 0.00 | 0.00 | 96 | 1013.0 |
| 20260906081151 | 70 | 89 | 0.0 | 0.0 | 0.00 | 0.00 | 0.00 | 95 | 1013.0 |
| 20260906080144 | 70 | 89 | 0.0 | 0.0 | 0.00 | 0.00 | 0.00 | 95 | 1013.1 |
| 20260906075134 | 70 | 89 | 0.0 | 0.0 | 0.00 | 0.00 | 0.00 | 95 | 1013.1 |
| 20260906074125 | 70 | 89 | 0.0 | 0.0 | 0.00 | 0.00 | 0.00 | 95 | 1013.0 |
| 20260906073123 | 70 | 89 | 0.0 | 0.0 | 0.00 | 0.00 | 0.00 | 95 | 1013.0 |
| 20260906072117 | 70 | 89 | 0.0 | 0.0 | 0.00 | 0.00 | 0.00 | 95 | 1013.0 |
| 20260906071131 | 70 | 89 | 0.0 | 0.0 | 0.00 | 0.00 | 0.00 | 94 | 1013.0 |
| 20260906070125 | 70 | 89 | 0.0 | 0.0 | 0.00 | 0.00 | 0.00 | 94 | 1013.0 |
| 20260906065119 | 70 | 89 | 0.0 | 0.0 | 0.00 | 0.00 | 0.00 | 94 | 1013.2 |
| 20260906064132 | 70 | 89 | 0.0 | 0.0 | 0.00 | 0.00 | 0.00 | 94 | 1013.3 |
| 20260906063126 | 70 | 89 | 0.0 | 0.0 | 0.00 | 0.00 | 0.00 | 94 | 1013.4 |
| 20260906062144 | 70 | 90 | 0.0 | 0.0 | 0.00 | 0.00 | 0.00 | 94 | 1013.3 |
| 20260906061117 | 70 | 90 | 0.0 | 0.0 | 0.00 | 0.00 | 0.00 | 94 | 1013.4 |
| 20260906060131 | 70 | 90 | 0.0 | 0.0 | 0.00 | 0.00 | 0.00 | 94 | 1013.5 |
| 20260906055122 | 71 | 90 | 0.0 | 0.0 | 0.00 | 0.00 | 0.00 | 94 | 1013.5 |
| 20260906054119 | 71 | 90 | 0.0 | 0.0 | 0.00 | 0.00 | 0.00 | 94 | 1013.5 |
| 20260906053132 | 71 | 90 | 0.0 | 0.0 | 0.00 | 0.00 | 0.00 | 94 | 1013.7 |
| 20260906052125 | 71 | 90 | 0.0 | 0.0 | 0.00 | 0.00 | 0.00 | 94 | 1013.7 |
| 20260906051122 | 71 | 90 | 0.0 | 0.0 | 0.00 | 0.00 | 0.00 | 94 | 1013.8 |
| 20260906050135 | 71 | 90 | 0.0 | 0.0 | 0.00 | 0.00 | 0.00 | 94 | 1013.9 |
| 20260906045126 | 71 | 90 | 0.0 | 0.0 | 0.00 | 0.00 | 0.00 | 94 | 1014.1 |
| 20260906044119 | 71 | 90 | 0.0 | 0.0 | 0.00 | 0.00 | 0.00 | 94 | 1014.1 |
| 20260906043118 | 71 | 90 | 0.0 | 0.0 | 0.00 | 0.00 | 0.00 | 93 | 1014.3 |
| 20260906042131 | 71 | 90 | 0.0 | 0.0 | 0.00 | 0.00 | 0.00 | 93 | 1014.2 |
| 20260906041123 | 72 | 90 | 0.0 | 0.0 | 0.00 | 0.00 | 0.00 | 93 | 1014.2 |
| 20260906040138 | 72 | 90 | 0.0 | 0.0 | 0.00 | 0.00 | 0.00 | 93 | 1014.3 |
| 20260906035132 | 72 | 90 | 0.0 | 0.0 | 0.00 | 0.00 | 0.00 | 93 | 1014.3 |
| 20260906034125 | 72 | 90 | 0.0 | 0.0 | 0.00 | 0.00 | 0.00 | 93 | 1014.2 |
| 20260906033118 | 72 | 90 | 0.0 | 0.0 | 0.00 | 0.00 | 0.00 | 93 | 1014.3 |
| 20260906032117 | 72 | 90 | 0.0 | 0.0 | 0.00 | 0.00 | 0.00 | 93 | 1014.2 |
| 20260906031130 | 72 | 90 | 0.0 | 0.0 | 0.00 | 0.00 | 0.00 | 93 | 1014.3 |
| 20260906030124 | 72 | 90 | 0.0 | 0.0 | 0.00 | 0.00 | 0.00 | 93 | 1014.1 |
| 20260906025116 | 72 | 90 | 0.0 | 0.0 | 0.00 | 0.00 | 0.00 | 93 | 1014.3 |
| 20260906024133 | 72 | 90 | 0.0 | 0.0 | 0.00 | 0.00 | 0.00 | 93 | 1014.0 |
| 20260906023125 | 72 | 90 | 0.0 | 0.0 | 0.00 | 0.00 | 0.00 | 92 | 1014.0 |
| 20260906022119 | 73 | 90 | 0.0 | 0.0 | 0.00 | 0.00 | 0.00 | 92 | 1014.0 |
| 20260906021117 | 73 | 90 | 0.0 | 1.7 | 0.00 | 0.00 | 0.00 | 92 | 1014.0 |
| 20260906020130 | 73 | 285 | 0.0 | 0.0 | 0.00 | 0.00 | 0.00 | 91 | 1013.4 |
| 20260906015121 | 74 | 285 | 0.0 | 0.0 | 0.00 | 0.00 | 0.00 | 91 | 1013.3 |
| 20260906014114 | 74 | 285 | 0.0 | 0.0 | 0.00 | 0.00 | 0.00 | 91 | 1013.2 |
| 20260906013131 | 74 | 285 | 0.0 | 0.0 | 0.00 | 0.00 | 0.00 | 90 | 1013.4 |
| 20260906012146 | 74 | 285 | 0.0 | 0.0 | 0.00 | 0.00 | 0.00 | 91 | 1013.4 |
| 20260906011117 | 74 | 285 | 0.0 | 0.0 | 0.00 | 0.00 | 0.00 | 90 | 1013.1 |
| 20260906010129 | 74 | 285 | 0.0 | 0.0 | 0.00 | 0.00 | 0.00 | 90 | 1013.0 |
| 20260906005124 | 75 | 285 | 0.0 | 0.9 | 0.00 | 0.00 | 0.00 | 89 | 1013.1 |
| 20260906004117 | 75 | 285 | 0.0 | 0.0 | 0.00 | 0.00 | 0.00 | 90 | 1013.0 |
| 20260906003130 | 75 | 285 | 0.0 | 0.0 | 0.00 | 0.00 | 0.00 | 89 | 1013.0 |
| 20260906002144 | 75 | 285 | 0.0 | 0.0 | 0.00 | 0.00 | 0.00 | 89 | 1012.9 |
| 20260906001119 | 76 | 285 | 0.0 | 0.0 | 0.00 | 0.00 | 0.00 | 88 | 1012.8 |
| 20260906000152 | 76 | 285 | 0.0 | 0.0 | 0.00 | 0.00 | 0.00 | 87 | 1012.8 |
| 20260905235121 | 76 | 285 | 0.0 | 0.0 | 0.00 | 0.00 | 0.00 | 87 | 1012.6 |
| 20260905234118 | 77 | 285 | 0.0 | 0.9 | 0.00 | 0.00 | 0.00 | 86 | 1012.5 |
| 20260905233133 | 77 | 285 | 0.0 | 0.9 | 0.00 | 0.00 | 0.00 | 86 | 1012.4 |
| 20260905232127 | 77 | 285 | 0.0 | 0.9 | 0.00 | 0.00 | 0.00 | 85 | 1012.5 |
| 20260905231121 | 78 | 286 | 0.0 | 0.9 | 0.00 | 0.00 | 0.00 | 84 | 1012.5 |
| 20260905230117 | 78 | 286 | 0.0 | 1.7 | 0.00 | 0.10 | 0.00 | 84 | 1012.3 |
| 20260905225129 | 78 | 283 | 0.0 | 0.0 | 0.00 | 0.10 | 0.00 | 85 | 1012.2 |
| 20260905224121 | 78 | 283 | 0.0 | 0.9 | 0.00 | 0.10 | 0.00 | 84 | 1012.2 |
| 20260905223154 | 78 | 283 | 0.0 | 0.9 | 0.00 | 0.10 | 0.00 | 84 | 1012.4 |
| 20260905222131 | 78 | 285 | 0.0 | 0.9 | 0.00 | 0.10 | 0.00 | 84 | 1012.4 |
| 20260905221125 | 79 | 285 | 0.0 | 0.9 | 0.00 | 0.10 | 0.00 | 85 | 1012.5 |
| 20260905220117 | 79 | 279 | 0.9 | 1.7 | 0.00 | 0.10 | 0.00 | 85 | 1012.6 |
| 20260905215133 | 79 | 260 | 0.0 | 0.9 | 0.00 | 0.10 | 0.00 | 86 | 1012.6 |
| 20260905214127 | 79 | 278 | 0.0 | 3.5 | 0.00 | 0.10 | 0.00 | 86 | 1012.8 |
| 20260905213120 | 79 | 254 | 0.9 | 1.7 | 0.00 | 0.10 | 0.00 | 87 | 1012.9 |
| 20260905212132 | 77 | 246 | 0.0 | 0.9 | 0.00 | 0.10 | 0.00 | 91 | 1013.1 |
| 20260905211130 | 76 | 234 | 0.0 | 0.9 | 0.00 | 0.10 | 0.00 | 93 | 1013.2 |
| 20260905210125 | 75 | 232 | 0.0 | 0.0 | 0.00 | 0.10 | 0.00 | 92 | 1012.8 |
| 20260905205116 | 75 | 226 | 0.0 | 0.0 | 0.00 | 0.10 | 0.00 | 93 | 1012.7 |
| 20260905204134 | 75 | 226 | 0.0 | 0.0 | 0.00 | 0.10 | 0.00 | 92 | 1012.6 |
| 20260905203125 | 74 | 226 | 0.0 | 0.0 | 0.00 | 0.10 | 0.00 | 92 | 1012.9 |
| 20260905202119 | 74 | 227 | 0.0 | 0.9 | 0.00 | 0.10 | 0.00 | 92 | 1012.6 |
| 20260905201133 | 74 | 212 | 0.0 | 0.9 | 0.00 | 0.10 | 0.00 | 91 | 1013.0 |
| 20260905200130 | 74 | 210 | 0.0 | 0.9 | 0.00 | 0.10 | 0.00 | 90 | 1013.0 |
| 20260905195120 | 75 | 163 | 0.0 | 0.0 | 0.00 | 0.10 | 0.00 | 89 | 1012.9 |
| 20260905194153 | 76 | 161 | 0.0 | 0.9 | 0.00 | 0.10 | 0.00 | 86 | 1012.6 |
| 20260905193126 | 76 | 195 | 0.0 | 1.7 | 0.00 | 0.10 | 0.00 | 86 | 1012.7 |
| 20260905192124 | 78 | 5 | 0.0 | 0.9 | 0.00 | 0.10 | 0.00 | 83 | 1013.0 |
| 20260905191118 | 80 | 27 | 0.0 | 0.9 | 0.00 | 0.10 | 0.00 | 77 | 1013.4 |
| 20260905190130 | 82 | 27 | 0.9 | 4.3 | 0.00 | 0.10 | 0.00 | 71 | 1013.3 |
| 20260905185126 | 85 | 28 | 3.5 | 6.1 | 0.00 | 0.10 | 0.00 | 67 | 1013.0 |
| 20260905184120 | 90 | 35 | 3.5 | 5.2 | 0.00 | 0.10 | 0.00 | 72 | 1012.7 |
| 20260905183131 | 91 | 193 | 0.0 | 1.7 | 0.00 | 0.10 | 0.00 | 68 | 1012.4 |
| 20260905182125 | 92 | 219 | 0.0 | 0.9 | 0.00 | 0.10 | 0.00 | 66 | 1012.4 |
| 20260905181122 | 93 | 219 | 0.0 | 0.0 | 0.00 | 0.10 | 0.00 | 66 | 1012.6 |
| 20260905180114 | 93 | 219 | 0.0 | 0.0 | 0.00 | 0.10 | 0.00 | 65 | 1012.8 |
| 20260905175125 | 94 | 219 | 0.0 | 0.0 | 0.00 | 0.10 | 0.00 | 66 | 1013.1 |
| 20260905174122 | 94 | 219 | 0.0 | 1.7 | 0.00 | 0.10 | 0.00 | 62 | 1013.1 |
| 20260905173134 | 93 | 246 | 0.0 | 0.9 | 0.00 | 0.10 | 0.00 | 66 | 1013.5 |
| 20260905172127 | 93 | 223 | 0.0 | 0.0 | 0.00 | 0.10 | 0.00 | 66 | 1013.9 |
| 20260905171121 | 93 | 223 | 0.0 | 0.9 | 0.00 | 0.10 | 0.00 | 65 | 1014.0 |
| 20260905170118 | 93 | 198 | 0.0 | 1.7 | 0.00 | 0.10 | 0.00 | 63 | 1014.1 |
| 20260905165130 | 93 | 257 | 0.0 | 3.5 | 0.00 | 0.10 | 0.00 | 63 | 1014.3 |
| 20260905164143 | 93 | 186 | 0.0 | 0.9 | 0.00 | 0.10 | 0.00 | 62 | 1014.4 |
| 20260905163119 | 91 | 255 | 0.0 | 3.5 | 0.00 | 0.10 | 0.00 | 65 | 1014.4 |
| 20260905162132 | 91 | 253 | 0.0 | 1.7 | 0.00 | 0.10 | 0.00 | 68 | 1014.5 |
| 20260905161146 | 91 | 252 | 0.0 | 1.7 | 0.00 | 0.10 | 0.00 | 67 | 1014.6 |
| 20260905160138 | 90 | 240 | 0.0 | 1.7 | 0.00 | 0.10 | 0.00 | 71 | 1014.7 |
| 20260905155129 | 90 | 246 | 0.0 | 1.7 | 0.00 | 0.10 | 0.00 | 69 | 1014.9 |
| 20260905154127 | 89 | 257 | 0.0 | 3.5 | 0.00 | 0.10 | 0.00 | 68 | 1014.9 |
| 20260905153121 | 89 | 251 | 0.0 | 3.5 | 0.00 | 0.10 | 0.00 | 68 | 1015.1 |
| 20260905152115 | 88 | 250 | 0.0 | 1.7 | 0.00 | 0.10 | 0.00 | 72 | 1015.0 |
| 20260905151132 | 87 | 269 | 0.0 | 1.7 | 0.00 | 0.10 | 0.00 | 74 | 1015.2 |
| 20260905150125 | 86 | 270 | 0.0 | 1.7 | 0.00 | 0.10 | 0.00 | 74 | 1015.2 |
| 20260905145136 | 86 | 263 | 0.0 | 1.7 | 0.00 | 0.10 | 0.00 | 75 | 1015.3 |
| 20260905144130 | 85 | 261 | 0.9 | 3.5 | 0.00 | 0.10 | 0.00 | 76 | 1015.3 |
| 20260905143127 | 84 | 269 | 0.0 | 0.9 | 0.00 | 0.10 | 0.00 | 78 | 1015.3 |
| 20260905142121 | 84 | 269 | 0.0 | 0.9 | 0.00 | 0.10 | 0.00 | 79 | 1015.3 |
| 20260905141114 | 83 | 269 | 0.0 | 0.9 | 0.00 | 0.10 | 0.00 | 78 | 1015.1 |
| 20260905140130 | 82 | 264 | 0.0 | 0.9 | 0.00 | 0.10 | 0.00 | 80 | 1015.2 |
| 20260905135120 | 82 | 282 | 0.0 | 0.9 | 0.00 | 0.10 | 0.00 | 81 | 1015.2 |
| 20260905134114 | 81 | 284 | 0.0 | 0.9 | 0.00 | 0.10 | 0.00 | 83 | 1015.1 |
| 20260905133128 | 80 | 221 | 0.0 | 0.9 | 0.00 | 0.10 | 0.00 | 83 | 1015.1 |
| 20260905132126 | 79 | 286 | 0.0 | 1.7 | 0.00 | 0.10 | 0.00 | 85 | 1015.2 |
| 20260905131118 | 78 | 288 | 0.0 | 1.7 | 0.00 | 0.10 | 0.00 | 87 | 1015.3 |
| 20260905130152 | 76 | 232 | 0.0 | 0.0 | 0.00 | 0.10 | 0.00 | 90 | 1015.3 |
| 20260905125122 | 75 | 232 | 0.0 | 0.0 | 0.00 | 0.10 | 0.00 | 92 | 1015.3 |
| 20260905124118 | 74 | 232 | 0.0 | 0.0 | 0.00 | 0.10 | 0.00 | 93 | 1015.4 |
| 20260905123131 | 73 | 232 | 0.0 | 0.0 | 0.00 | 0.10 | 0.00 | 94 | 1015.5 |
| 20260905122123 | 72 | 223 | 0.0 | 0.0 | 0.00 | 0.10 | 0.00 | 95 | 1015.4 |
| 20260905121120 | 72 | 213 | 0.0 | 0.0 | 0.00 | 0.10 | 0.00 | 96 | 1015.4 |
| 20260905120131 | 71 | 213 | 0.0 | 0.0 | 0.00 | 0.10 | 0.00 | 96 | 1015.3 |
| 20260905115123 | 71 | 213 | 0.0 | 0.0 | 0.00 | 0.10 | 0.00 | 95 | 1015.2 |
| 20260905114116 | 71 | 213 | 0.0 | 0.0 | 0.00 | 0.10 | 0.00 | 95 | 1014.9 |
| 20260905113115 | 71 | 211 | 0.0 | 0.0 | 0.00 | 0.10 | 0.00 | 95 | 1014.7 |
| 20260905112128 | 71 | 211 | 0.0 | 0.0 | 0.00 | 0.10 | 0.00 | 95 | 1014.7 |